Location: ??
(34.7707°N, 135.6540°E)
Time: 18:50:34
(UTC+00:00)

STARLINK-80 - Pass Details

Date: 09 April 2020
Orbit: 487 x 492 km, 53.0° (Epoch: 06 June)

Event Time Altitude Azimuth Distance (km) Brightness Sun altitude
Rises 19:55:40 0° 318° (NW) 2,567 6.8 -8.2°
Reaches altitude 10° 19:57:53 10° 322° (NW) 1,684 5.9 -7.7°
Maximum altitude 20:01:38 57° 42° (NE) 582 4.1 -7.0°
Drops below altitude 10° 20:05:22 10° 122° (ESE) 1,680 6.8 -6.2°
Sets 20:07:34 0° 127° (SE) 2,559 7.7 -5.8°
